FW6122 Weather Reports


Display with metric or nautical units.
time (UTC)temp
F
wind
direction
speed
MPH
gust
MPH
rain 1hr
in
rain 24hr
in
rain mn
in
humidity
%
barometer
mb
20260902100044 57 244 4.0 8.0 0.00 0.00 0.00 43 1012.6
20260902094545 57 236 4.0 7.0 0.00 0.00 0.00 43 1012.6
20260902093039 57 236 4.0 8.0 0.00 0.00 0.00 43 1012.7
20260902091537 57 233 4.0 9.0 0.00 0.00 0.00 41 1012.8
20260902090040 57 236 4.0 7.0 0.00 0.00 0.00 41 1012.9
20260902084536 58 234 3.0 8.0 0.00 0.00 0.00 39 1013.0
20260902083030 58 198 4.0 8.0 0.00 0.00 0.00 37 1013.2
20260902081528 58 218 3.0 7.0 0.00 0.00 0.00 36 1013.3
20260902080026 58 238 4.0 11.0 0.00 0.00 0.00 34 1013.3
20260902074525 58 240 4.0 8.0 0.00 0.00 0.00 31 1013.4
20260902073022 58 238 4.0 9.0 0.00 0.00 0.00 26 1013.3
20260902071522 58 229 4.0 9.0 0.00 0.00 0.00 27 1013.3
20260902070025 58 213 4.0 8.0 0.00 0.00 0.00 26 1013.1
20260902064533 58 240 4.0 9.0 0.00 0.00 0.00 24 1013.1
20260902063017 58 244 4.0 9.0 0.00 0.00 0.00 24 1012.9
20260902061515 59 180 4.0 8.0 0.00 0.00 0.00 24 1012.8
20260902060016 59 221 4.0 9.0 0.00 0.00 0.00 23 1012.6
20260902054513 59 221 4.0 9.0 0.00 0.00 0.00 23 1012.5
20260902053011 59 204 4.0 9.0 0.00 0.00 0.00 22 1012.5
20260902051511 59 238 4.0 10.0 0.00 0.00 0.00 24 1012.5
20260902050008 59 244 4.0 10.0 0.00 0.00 0.00 24 1012.5
20260902044509 60 246 4.0 11.0 0.00 0.00 0.00 24 1012.3
20260902043007 60 238 4.0 8.0 0.00 0.00 0.00 26 1012.3
20260902041523 60 213 4.0 9.0 0.00 0.00 0.00 26 1012.2
20260902040007 59 229 4.0 9.0 0.00 0.00 0.00 27 1012.1
20260902034506 59 209 3.0 8.0 0.00 0.00 0.00 27 1011.9
20260902033002 59 217 3.0 7.0 0.00 0.00 0.00 28 1011.6
20260902031501 60 240 4.0 8.0 0.00 0.00 0.00 29 1011.3
20260902030001 60 251 3.0 8.0 0.00 0.00 0.00 33 1011.1
20260902024601 60 219 3.0 9.0 0.00 0.00 0.00 40 1010.8
20260902023059 60 229 4.0 10.0 0.00 0.00 0.00 47 1010.6
20260902021617 61 191 4.0 9.0 0.00 0.00 0.00 50 1010.6
20260902020058 62 234 4.0 9.0 0.00 0.00 0.00 50 1010.7
20260902014558 63 207 3.0 11.0 0.00 0.00 0.00 51 1010.7
20260902013054 65 165 3.0 10.0 0.00 0.00 0.00 51 1010.8
20260902011556 66 219 3.0 7.0 0.00 0.00 0.00 48 1010.8
20260902010052 67 242 4.0 9.0 0.00 0.00 0.00 48 1011.1
20260902004551 68 158 3.0 9.0 0.00 0.00 0.00 45 1011.2
20260902003048 70 240 4.0 10.0 0.00 0.00 0.00 42 1011.3
20260902001547 71 232 3.0 8.0 0.00 0.00 0.00 41 1011.3
20260902000052 72 235 2.0 8.0 0.00 0.00 0.00 39 1011.5
20260901234547 73 174 3.0 9.0 0.00 0.00 0.00 39 1011.9
20260901233048 73 191 3.0 9.0 0.00 0.00 0.00 37 1011.9
20260901231546 74 253 4.0 8.0 0.00 0.00 0.00 35 1012.0
20260901230051 74 248 2.0 7.0 0.00 0.00 0.00 35 1012.1
20260901224544 76 180 4.0 7.0 0.00 0.00 0.00 30 1012.2
20260901223102 76 140 2.0 9.0 0.00 0.00 0.00 30 1012.3
20260901221545 76 170 2.0 9.0 0.00 0.00 0.00 29 1012.3
20260901220049 76 143 4.0 9.0 0.00 0.00 0.00 29 1012.5
20260901214546 77 221 3.0 9.0 0.00 0.00 0.00 26 1012.7
20260901213041 76 238 3.0 8.0 0.00 0.00 0.00 24 1012.8
20260901211540 77 144 3.0 9.0 0.00 0.00 0.00 23 1012.8
20260901210043 76 250 3.0 10.0 0.00 0.00 0.00 26 1012.8
20260901204541 77 167 3.0 8.0 0.00 0.00 0.00 29 1013.0
20260901203045 76 196 1.0 10.0 0.00 0.00 0.00 31 1013.1
20260901201533 76 190 1.0 6.0 0.00 0.00 0.00 31 1013.4
20260901200045 76 171 2.0 9.0 0.00 0.00 0.00 31 1013.5
20260901194537 77 163 3.0 7.0 0.00 0.00 0.00 30 1013.5
20260901193029 76 209 2.0 5.0 0.00 0.00 0.00 29 1013.5
20260901191525 76 227 1.0 7.0 0.00 0.00 0.00 29 1013.7
20260901190039 75 216 2.0 6.0 0.00 0.00 0.00 29 1013.9
20260901184521 74 244 3.0 5.0 0.00 0.00 0.00 28 1014.0
20260901183027 74 163 2.0 8.0 0.00 0.00 0.00 27 1013.9
20260901181518 75 153 2.0 6.0 0.00 0.00 0.00 27 1013.9
20260901180016 74 194 1.0 7.0 0.00 0.00 0.00 27 1013.7
20260901174515 73 192 1.0 4.0 0.00 0.00 0.00 27 1013.6
20260901173009 72 274 2.0 7.0 0.00 0.00 0.00 28 1013.7
20260901171508 71 186 3.0 10.0 0.00 0.00 0.00 29 1013.4
20260901170005 70 245 2.0 5.0 0.00 0.00 0.00 30 1013.1
20260901164600 68 228 2.0 8.0 0.00 0.00 0.00 32 1013.0
20260901163056 67 182 2.0 10.0 0.00 0.00 0.00 38 1012.8
20260901161608 66 218 2.0 6.0 0.00 0.00 0.00 41 1012.6
20260901160051 66 197 2.0 5.0 0.00 0.00 0.00 46 1012.4
20260901154549 65 184 3.0 7.0 0.00 0.00 0.00 48 1012.4
20260901153046 64 277 3.0 7.0 0.00 0.00 0.00 49 1012.3
20260901151542 63 196 2.0 6.0 0.00 0.00 0.00 50 1012.2
20260901150042 63 227 2.0 7.0 0.00 0.00 0.00 51 1012.0
20260901144536 62 251 3.0 6.0 0.00 0.00 0.00 52 1011.8
20260901143037 61 159 3.0 9.0 0.00 0.00 0.00 53 1011.9
20260901141529 61 237 3.0 9.0 0.00 0.00 0.00 53 1011.7
20260901140030 60 189 3.0 8.0 0.00 0.00 0.00 51 1011.5
20260901134526 60 189 3.0 10.0 0.00 0.00 0.00 51 1011.5
20260901133032 60 215 3.0 6.0 0.00 0.00 0.00 49 1011.4
20260901131524 60 192 2.0 5.0 0.00 0.00 0.00 47 1011.4
20260901130023 60 184 2.0 6.0 0.00 0.00 0.00 39 1011.4
20260901124522 60 211 3.0 6.0 0.00 0.00 0.00 34 1011.4
20260901123023 60 220 3.0 7.0 0.00 0.00 0.00 35 1011.2
20260901121523 60 240 3.0 9.0 0.00 0.00 0.00 35 1011.1
20260901120021 60 232 3.0 7.0 0.00 0.00 0.00 36 1011.1
20260901114518 60 200 2.0 5.0 0.00 0.00 0.00 35 1011.0
20260901113018 60 209 3.0 10.0 0.00 0.00 0.00 37 1011.0
20260901111517 60 210 2.0 8.0 0.00 0.00 0.00 36 1010.9
20260901110016 60 227 2.0 7.0 0.00 0.00 0.00 38 1010.9
20260901104534 60 227 2.0 7.0 0.00 0.00 0.00 39 1010.9
20260901103014 60 169 2.0 6.0 0.00 0.00 0.00 42 1010.8
20260901101519 60 189 2.0 9.0 0.00 0.00 0.00 44 1011.0